Regional Weather Roundup
Issued by NWS

Home | Current Version | Previous Version | Text Only | Print | Product List | Glossary Off
Versions: 1 2 3 4 5 6 7 8 9 10 11 12 13 14 15 16 17 18 19 20 21 22 23 24 25 26 27 28 29 30 31 32 33 34 35 36 37 38 39 40 41 42 43 44 45 46 47 48 49 50

000
ASUS43 KLOT 171609
RWRIL

ILLINOIS REGIONAL WEATHER ROUNDUP
NATIONAL WEATHER SERVICE CHICAGO/ROMEOVILLE IL
1100 AM CDT TUE OCT 17 2017

NOTE: "FAIR" INDICATES FEW OR NO CLOUDS BELOW 12,000 FEET WITH NO
SIGNIFICANT WEATHER AND/OR OBSTRUCTIONS TO VISIBILITY.

* THESE STATIONS ARE NOT UNDER NWS QUALITY CONTROL. THEY ALSO MAY NOT
  REPORT WEATHER SUCH AS PRECIPITATION OR FOG.

ILZ001-002-007-009-015-016-024-171700-
NORTHWEST ILLINOIS

CITY           SKY/WX    TMP DP  RH WIND       PRES   REMARKS
MOLINE         SUNNY     63  44  50 SW13      30.19S
SAVANNA*       SUNNY     64  43  46 SW9       30.17S
$$

ILZ003-004-008-010-011-017-018-171700-
NORTH CENTRAL ILLINOIS

CITY           SKY/WX    TMP DP  RH WIND       PRES   REMARKS
ROCKFORD       MOSUNNY   65  45  48 SW13      30.18F
FREEPORT*      SUNNY     62  42  48 SW10G21   30.18S
ROCHELLE*      SUNNY     64  42  44 SW16G24   30.19F
DE KALB*       SUNNY     63  43  47 W20G28    30.19F
PERU*          SUNNY     61  42  49 SW16G23   30.23F
$$

ILZ005-006-012>014-019>023-171700-
NORTHEAST ILLINOIS

CITY           SKY/WX    TMP DP  RH WIND       PRES   REMARKS
CHICAGO-OHARE  MOSUNNY   62  42  47 SW14G23   30.19S
CHICAGO-MIDWAY MOSUNNY   62  43  49 SW17G23   30.20S
AURORA         SUNNY     61  45  55 SW15      30.21S
LANSING*       SUNNY     62  46  55 SW16G22   30.23F
JOLIET*        SUNNY     64  44  48 SW12G20   30.22F
WAUKEGAN       SUNNY     64  43  46 SW13G22   30.14F
DUPAGE AIRPORT SUNNY     62  45  53 SW15G24   30.19S
KANKAKEE*      SUNNY     64  41  43 SW16G22   30.26F
WHEELING       NOT AVBL
MORRIS*        SUNNY     64  43  46 SW15      30.22F
ROMEOVILLE*    SUNNY     62  45  53 SW14G20   30.22S
NORTHERLY ISL    N/A     61  40  45 SW10        N/A
$$

LMZ740>746-171700-
SOUTHERN LAKE MICHIGAN

STATION/POSITION SKY/WX   TEMP    WIND        PRES    VSBY  WAVE
                          AIR SEA DIR/SP/G                  HT/PER
                          (F)     (DEG/KT/KT) (MB)    (MI)  (FT/S)
SOUTHERN BUOY              59 61  250/ 21/ 25 1020.5S         6/ 6
WILMETTE HARBOR            59 57  230/ 16/ 21   N/A           2/ 3
HARRISON CRIB              61     230/ 15/ 22   N/A
BURNHAM HARBOR             61     240/ 10/ 13   N/A
CALUMET HARBOR             61     210/ 12/ 17 1022.0F
BURNS HARBOR               60     220/ 19/ 23 1023.7S
MICHIGAN CITY              59     200/ 18/ 21   N/A
MICHIGAN CITY 6N           58 57  210/ 14/ 21   N/A           3/ 4
ST. JOSEPH                 58 57  230/ 14/ 17 1023.6F         4/ 5
$$

ILZ025>027-034>036-040-047-049-050-058-095>099-171700-
WEST-CENTRAL ILLINOIS

CITY           SKY/WX    TMP DP  RH WIND       PRES   REMARKS
QUINCY         SUNNY     61  42  49 S12       30.26S
GALESBURG*     SUNNY     62  44  51 SW17      30.24S
MACOMB*        SUNNY     62  42  48 SW8       30.28S
JACKSONVILLE*  SUNNY     61  40  46 S10G21    30.29F
PITTSFIELD*    SUNNY     61  42  50 S12G18    30.30F
$$

ILZ028>032-037-038-041>044-048-051>054-059>061-171700-
CENTRAL ILLINOIS

CITY           SKY/WX    TMP DP  RH WIND       PRES   REMARKS
PONTIAC        SUNNY     64  42  44 SW18G24   30.26S
BLOOMINGTON    SUNNY     61  42  49 SW15      30.28S
DECATUR        SUNNY     61  40  45 SW15      30.31F
PEORIA         SUNNY     61  45  55 SW14      30.26F
LACON*         SUNNY     60  44  55 SW10      30.24F
LINCOLN*       SUNNY     64  43  46 SW8       30.29S
SPRINGFIELD    SUNNY     64  42  44 SW15      30.29F
TAYLORVILLE    SUNNY     62  39  42 SW16G22   30.32F
$$

ILZ033-039-045-046-055>057-062-063-171700-
EAST-CENTRAL ILLINOIS

CITY           SKY/WX    TMP DP  RH WIND       PRES   REMARKS
CHAMPAIGN      SUNNY     64  39  39 SW17      30.31F
DANVILLE*      SUNNY     62  39  41 SW17G25   30.28F
RANTOUL*       SUNNY     63  43  48 SW16G23   30.30S
MATTOON        SUNNY     61  41  47 SW9G18    30.33F
PARIS*         SUNNY     62  41  45 S16       30.35S
$$

ILZ079-100>102-171700-
SOUTHWEST ILLINOIS

CITY           SKY/WX    TMP DP  RH WIND       PRES   REMARKS
ALTON          PTSUNNY   59  43  55 SW12      30.34S
BELLEVILLE     MOSUNNY   61  37  40 SE1         N/A
CAHOKIA*       MOSUNNY   61  40  45 VRB3      30.34F
SPARTA*        MOSUNNY   60  40  47 S12       30.37S
$$

ILZ064>066-069>071-074>076-080>082-084>086-088>090-092>094-171700-
SOUTH-CENTRAL ILLINOIS

CITY           SKY/WX    TMP DP  RH WIND       PRES   REMARKS
CARBONDALE     MOSUNNY   62  40  44 S10       30.36F
CAIRO*         CLOUDY    59  45  59 S3        30.38S
EFFINGHAM*     SUNNY     62  42  46 S8        30.36S
MARION         MOSUNNY   63  41  45 S9        30.37F
MT. VERNON     SUNNY     62  42  47 S10       30.36F
CENTRALIA*     SUNNY     63  40  44 SW10G16   30.34F
SALEM*         SUNNY     64  38  38 S9        30.35F
METROPOLIS*    SUNNY     62  43  50 SE5       30.39S
$$

ILZ067-068-072-073-078-083-087-091-171700-
SOUTHEAST ILLINOIS

CITY           SKY/WX    TMP DP  RH WIND       PRES   REMARKS
LAWRENCEVILLE  SUNNY     62  44  51 S10       30.37F
FLORA*         SUNNY     62  41  45 S12       30.36F
FAIRFIELD*     SUNNY     61  41  47 S6        30.35F
HARRISBURG*    SUNNY     62  41  47 S7        30.37F
ROBINSON*      SUNNY     62  40  45 SW9       30.37S
CARMI*         SUNNY     62  41  46 SE10      30.37F HAZE
$$

ABBREVIATIONS USED IN REMARKS
   TC - TEMPERATURE IN CELSIUS
  WCI - WIND CHILL INDEX
   HX - HEAT INDEX
  VSB - VISIBILITY
$$





USA.gov is the U.S. government's official web portal to all federal, state and local government web resources and services.